GW7739 Weather Reports


time (UTC)temp
C
wind
direction
speed
KPH
gust
KPH
rain 1hr
cm
rain 24hr
cm
rain mn
cm
humidity
%
barometer
mb
20260906052306 28 38 0.0 1.6 0.00 0.00 0.00 70 980.0
20260906051805 28 20 0.0 1.6 0.00 0.00 0.00 67 980.0
20260906051304 28 37 0.0 3.2 0.00 0.00 0.00 66 980.0
20260906050804 28 15 0.0 3.2 0.00 0.00 0.00 66 980.0
20260906050304 28 180 0.0 3.2 0.00 0.00 0.00 69 980.4
20260906045805 27 284 0.0 3.2 0.00 0.00 0.00 70 980.4
20260906045306 27 126 1.6 1.6 0.00 0.00 0.00 71 980.4
20260906044804 27 4 0.0 3.2 0.00 0.00 0.00 72 980.4
20260906044304 27 343 0.0 3.2 0.00 0.00 0.00 74 980.4
20260906043804 26 256 0.0 3.2 0.00 0.00 0.00 79 980.0
20260906043304 25 156 3.2 3.2 0.00 0.00 0.00 82 980.4
20260906042805 25 81 0.0 3.2 0.00 0.00 0.00 84 980.4
20260906042306 25 10 1.6 4.8 0.00 0.00 0.00 86 980.4
20260906041804 25 48 1.6 4.8 0.00 0.00 0.00 87 980.4
20260906041304 25 161 3.2 4.8 0.00 0.00 0.00 86 980.4
20260906040804 26 201 0.0 3.2 0.00 0.00 0.00 85 980.4
20260906040304 26 309 0.0 4.8 0.00 0.00 0.00 83 980.4
20260906035805 26 104 1.6 6.4 0.00 0.00 0.00 80 980.4
20260906035306 27 143 4.8 4.8 0.00 0.00 0.00 74 980.4
20260906034804 28 105 0.0 1.6 0.00 0.00 0.00 70 980.4
20260906034304 27 135 0.0 3.2 0.00 0.00 0.00 72 980.0
20260906033804 27 256 0.0 3.2 0.00 0.00 0.00 76 980.4
20260906033305 27 275 0.0 3.2 0.00 0.00 0.00 77 980.0
20260906032804 27 224 0.0 3.2 0.00 0.00 0.00 75 980.4
20260906032306 27 42 0.0 3.2 0.00 0.00 0.00 74 980.4
20260906031804 28 293 0.0 3.2 0.00 0.00 0.00 73 980.4
20260906031304 28 183 1.6 1.6 0.00 0.00 0.00 72 980.4
20260906030804 28 157 0.0 1.6 0.00 0.00 0.00 73 980.4
20260906030304 28 157 0.0 1.6 0.00 0.00 0.00 72 980.0
20260906025804 28 173 0.0 3.2 0.00 0.00 0.00 72 980.4
20260906025306 28 135 0.0 3.2 0.00 0.00 0.00 73 980.0
20260906024804 27 356 3.2 4.8 0.00 0.00 0.00 73 980.0
20260906024304 27 347 1.6 6.4 0.00 0.00 0.00 75 980.0
20260906023804 27 180 1.6 6.4 0.00 0.00 0.00 76 979.7
20260906023305 28 176 3.2 3.2 0.00 0.00 0.00 74 979.7
20260906022804 28 145 0.0 1.6 0.00 0.00 0.00 68 979.3
20260906022307 28 117 0.0 0.0 0.00 0.00 0.00 67 979.7
20260906021805 28 62 0.0 0.0 0.00 0.00 0.00 66 979.7
20260906021304 28 62 0.0 3.2 0.00 0.00 0.00 65 979.3
20260906020804 29 49 0.0 3.2 0.00 0.00 0.00 64 979.7
20260906020304 29 297 0.0 1.6 0.00 0.00 0.00 64 979.7
20260906015804 30 269 0.0 3.2 0.00 0.00 0.00 63 979.3
20260906015306 30 209 0.0 3.2 0.00 0.00 0.00 62 979.3
20260906014804 30 150 1.6 3.2 0.00 0.00 0.00 62 979.3
20260906014304 30 147 0.0 3.2 0.00 0.00 0.00 61 979.3
20260906013804 30 3.2 6.4 0.00 0.00 0.00 62 979.3
20260906013305 29 327 0.0 8.0 0.00 0.00 0.00 64 979.3
20260906012804 30 159 4.8 8.0 0.00 0.00 0.00 62 979.3
20260906012306 30 162 6.4 6.4 0.00 0.00 0.00 58 979.3
20260906011804 31 156 1.6 3.2 0.00 0.00 0.00 57 979.3
20260906011304 31 48 0.0 3.2 0.00 0.00 0.00 56 979.3
20260906010804 31 154 0.0 4.8 0.00 0.00 0.00 56 979.0
20260906010304 31 229 3.2 8.0 0.00 0.00 0.00 55 979.0
20260906005804 31 19 0.0 8.0 0.00 0.00 0.00 54 979.0
20260906005306 31 36 4.8 6.4 0.00 0.00 0.00 54 979.0
20260906004804 31 327 1.6 3.2 0.00 0.00 0.00 55 978.7
20260906004305 31 304 0.0 3.2 0.00 0.00 0.00 57 978.7
20260906003804 31 310 0.0 3.2 0.00 0.00 0.00 55 979.0
20260906003304 31 135 0.0 3.2 0.00 0.00 0.00 53 978.7
20260906002804 31 194 1.6 3.2 0.00 0.00 0.00 52 978.7
20260906002306 32 164 0.0 1.6 0.00 0.00 0.00 52 978.7
20260906001804 32 283 0.0 1.6 0.00 0.00 0.00 51 979.0
20260906001304 32 326 0.0 1.6 0.00 0.00 0.00 50 978.7
20260906000805 32 0.0 1.6 0.00 0.00 0.00 50 979.0
20260906000304 32 40 0.0 1.6 0.00 0.00 0.00 50 979.0
20260905235804 32 44 0.0 1.6 0.00 0.00 0.00 49 979.0
20260905235306 33 224 0.0 3.2 0.00 0.00 0.00 50 979.3
20260905234804 33 135 0.0 4.8 0.00 0.00 0.00 49 979.0
20260905234304 33 189 0.0 4.8 0.00 0.00 0.00 48 979.3
20260905233804 33 346 0.0 6.4 0.00 0.00 0.00 47 979.3
20260905233304 33 68 0.0 8.0 0.00 0.00 0.00 47 979.0
20260905232804 33 13 4.8 9.7 0.00 0.00 0.00 47 979.3
20260905232306 33 3 3.2 9.7 0.00 0.00 0.00 47 979.3
20260905231804 33 358 3.2 9.7 0.00 0.00 0.00 46 979.3
20260905231305 33 358 3.2 11.3 0.00 0.00 0.00 47 979.0
20260905230804 33 54 4.8 11.3 0.00 0.00 0.00 46 979.3
20260905230304 33 3.2 9.7 0.00 0.00 0.00 47 979.0
20260905225804 34 71 4.8 8.0 0.00 0.00 0.00 46 979.0
20260905225306 34 54 3.2 9.7 0.00 0.00 0.00 46 979.3
20260905224805 34 11 3.2 9.7 0.00 0.00 0.00 46 979.0
20260905224304 34 49 6.4 9.7 0.00 0.00 0.00 46 979.0
20260905223804 34 39 4.8 6.4 0.00 0.00 0.00 45 979.0
20260905223304 34 75 0.0 6.4 0.00 0.00 0.00 47 979.0
20260905222804 34 11 3.2 8.0 0.00 0.00 0.00 47 979.0
20260905222306 34 69 4.8 8.0 0.00 0.00 0.00 48 979.0
20260905221804 34 6 3.2 8.0 0.00 0.00 0.00 47 978.7
20260905221304 35 50 4.8 8.0 0.00 0.00 0.00 46 979.3
20260905220804 35 22 3.2 8.0 0.00 0.00 0.00 45 979.0
20260905220304 34 183 0.0 4.8 0.00 0.00 0.00 49 979.3
20260905215804 33 217 0.0 4.8 0.00 0.00 0.00 49 979.0
20260905215306 33 180 3.2 4.8 0.00 0.00 0.00 49 979.3
20260905214804 33 259 1.6 4.8 0.00 0.00 0.00 50 979.3
20260905214304 33 220 0.0 6.4 0.00 0.00 0.00 51 979.3
20260905213804 33 134 3.2 8.0 0.00 0.00 0.00 51 979.3
20260905213304 33 150 3.2 9.7 0.00 0.00 0.00 51 979.3
20260905212804 33 77 6.4 11.3 0.00 0.00 0.00 51 979.3
20260905212306 33 70 6.4 12.9 0.00 0.00 0.00 50 979.3
20260905211804 34 67 9.7 16.1 0.00 0.00 0.00 48 979.3
20260905211304 34 71 9.7 16.1 0.00 0.00 0.00 48 979.3
20260905210804 35 24 6.4 16.1 0.00 0.00 0.00 46 979.3
20260905210304 36 137 4.8 6.4 0.00 0.00 0.00 43 979.3
20260905205805 36 256 3.2 6.4 0.00 0.00 0.00 44 979.3
20260905205306 35 269 1.6 6.4 0.00 0.00 0.00 45 979.7
20260905204804 34 195 4.8 11.3 0.00 0.00 0.00 48 979.3
20260905204304 34 127 4.8 11.3 0.00 0.00 0.00 47 979.3
20260905203804 34 149 4.8 8.0 0.00 0.00 0.00 49 979.7
20260905203304 33 14 4.8 8.0 0.00 0.00 0.00 51 979.7
20260905202804 33 137 4.8 9.7 0.00 0.00 0.00 50 980.0
20260905202306 33 13 6.4 9.7 0.00 0.00 0.00 51 979.7
20260905201804 33 201 1.6 6.4 0.00 0.00 0.00 50 979.7
20260905201304 33 145 1.6 11.3 0.00 0.00 0.00 49 980.0
20260905200804 33 359 1.6 17.7 0.00 0.00 0.00 48 980.0
20260905200304 34 78 11.3 17.7 0.00 0.00 0.00 47 980.0
20260905195804 34 25 8.0 14.5 0.00 0.00 0.00 47 980.0
20260905195306 35 221 3.2 12.9 0.00 0.00 0.00 46 980.4
20260905194804 34 308 4.8 12.9 0.00 0.00 0.00 46 980.0
20260905194304 34 357 6.4 11.3 0.00 0.00 0.00 47 980.4
20260905193803 34 37 6.4 11.3 0.00 0.00 0.00 46 980.4
20260905193303 34 336 8.0 14.5 0.00 0.00 0.00 48 980.4
20260905192803 34 29 4.8 14.5 0.00 0.00 0.00 48 980.7
20260905192306 34 23 12.9 14.5 0.00 0.00 0.00 48 980.7
20260905191804 34 343 3.2 17.7 0.00 0.00 0.00 46 980.7
20260905191303 35 18 9.7 17.7 0.00 0.00 0.00 46 981.0
20260905190804 34 172 3.2 16.1 0.00 0.00 0.00 48 981.0
20260905190303 35 154 11.3 16.1 0.00 0.00 0.00 47 981.0
20260905185803 34 31 9.7 12.9 0.00 0.00 0.00 48 981.0
20260905185305 34 113 8.0 12.9 0.00 0.00 0.00 50 981.4
20260905184803 34 104 3.2 14.5 0.00 0.00 0.00 48 981.0
20260905184303 33 218 3.2 16.1 0.00 0.00 0.00 49 981.0
20260905183803 33 96 8.0 16.1 0.00 0.00 0.00 50 981.4
20260905183303 33 176 9.7 17.7 0.00 0.00 0.00 49 981.4
20260905182803 33 50 4.8 17.7 0.00 0.00 0.00 50 981.4
20260905182305 33 94 12.9 19.3 0.00 0.00 0.00 51 981.7
20260905181803 33 322 9.7 19.3 0.00 0.00 0.00 51 981.7
20260905181303 33 87 11.3 19.3 0.00 0.00 0.00 53 981.7
20260905180803 33 66 12.9 14.5 0.00 0.03 0.00 51 981.7
20260905180303 32 45 4.8 14.5 0.00 0.05 0.00 53 981.7
20260905175803 33 117 6.4 14.5 0.00 0.05 0.00 52 981.7
20260905175306 33 38 9.7 12.9 0.00 0.05 0.00 53 981.7
20260905174803 33 293 8.0 12.9 0.00 0.08 0.00 52 981.7
20260905174303 33 9 4.8 11.3 0.00 0.08 0.00 54 981.7
20260905173803 32 350 4.8 14.5 0.00 0.08 0.00 52 981.4
20260905173303 32 15 6.4 14.5 0.00 0.08 0.00 53 981.7
20260905172803 33 102 8.0 14.5 0.00 0.08 0.00 53 981.7
20260905172305 33 105 6.4 11.3 0.00 0.10 0.00 52 981.7
20260905171803 33 155 3.2 11.3 0.00 0.20 0.00 55 981.7
20260905171303 33 238 6.4 11.3 0.00 0.30 0.00 53 982.1
20260905170803 32 273 3.2 11.3 0.00 0.33 0.00 54 982.1
20260905170303 32 176 3.2 11.3 0.00 0.33 0.00 55 982.1
20260905165803 32 97 8.0 9.7 0.00 0.33 0.00 54 981.7
20260905165306 33 98 3.2 6.4 0.00 0.33 0.00 53 982.1
20260905164803 32 290 3.2 9.7 0.00 0.33 0.00 54 982.4
20260905164303 32 163 3.2 9.7 0.00 0.33 0.00 56 982.1
20260905163803 32 56 6.4 6.4 0.00 0.33 0.00 56 982.4
20260905163303 32 97 4.8 8.0 0.00 0.33 0.00 56 982.7
20260905162802 32 297 0.0 9.7 0.00 0.33 0.00 56 982.4
20260905162305 32 59 0.0 9.7 0.00 0.33 0.00 55 982.4
20260905161803 32 341 4.8 8.0 0.00 0.33 0.00 57 982.4
20260905161303 32 85 0.0 8.0 0.00 0.33 0.00 57 982.7
20260905160803 31 274 1.6 12.9 0.00 0.33 0.00 56 982.7
20260905160303 31 106 4.8 12.9 0.00 0.33 0.00 58 982.7
20260905155803 31 302 1.6 9.7 0.00 0.33 0.00 58 982.7
20260905155306 31 24 3.2 9.7 0.00 0.33 0.00 58 983.1
20260905154803 31 2 8.0 9.7 0.00 0.33 0.00 59 983.1
20260905154303 31 352 4.8 12.9 0.00 0.33 0.00 58 983.1
20260905153803 31 330 8.0 12.9 0.00 0.33 0.00 59 982.7
20260905153303 31 340 8.0 12.9 0.00 0.33 0.00 58 982.7
20260905152803 31 235 3.2 8.0 0.00 0.33 0.00 57 982.7
20260905152306 31 273 3.2 12.9 0.00 0.33 0.00 59 983.1
20260905151803 31 266 1.6 12.9 0.00 0.33 0.00 59 983.1
20260905151303 31 330 4.8 8.0 0.00 0.33 0.00 58 982.7
20260905150803 31 12 4.8 6.4 0.00 0.33 0.00 59 983.1
20260905150303 31 220 3.2 8.0 0.00 0.33 0.00 60 983.1
20260905145803 31 322 4.8 8.0 0.00 0.33 0.00 60 983.1
20260905145306 31 238 4.8 6.4 0.00 0.33 0.00 62 982.7
20260905144803 31 318 4.8 4.8 0.00 0.33 0.00 61 983.1
20260905144303 30 310 3.2 8.0 0.00 0.33 0.00 62 982.7
20260905143804 30 271 1.6 8.0 0.00 0.33 0.00 64 983.1
20260905143303 29 263 3.2 8.0 0.00 0.33 0.00 64 982.7
20260905142803 29 273 4.8 8.0 0.00 0.33 0.00 65 983.1
20260905142306 29 287 4.8 9.7 0.00 0.33 0.00 65 983.1
20260905141803 29 299 3.2 9.7 0.00 0.33 0.00 66 983.1
20260905141303 28 301 4.8 11.3 0.00 0.33 0.00 66 983.1
20260905140803 28 252 4.8 11.3 0.00 0.33 0.00 67 983.1
20260905140303 28 265 8.0 12.9 0.00 0.33 0.00 66 983.1
20260905135803 28 269 4.8 12.9 0.00 0.33 0.00 66 983.1
20260905135306 28 281 8.0 12.9 0.00 0.33 0.00 66 983.1
20260905134802 28 269 8.0 9.7 0.00 0.33 0.00 67 983.1
20260905134303 28 271 6.4 8.0 0.00 0.33 0.00 68 983.1
20260905133803 28 303 3.2 8.0 0.00 0.33 0.00 68 983.1
20260905133303 28 309 3.2 6.4 0.00 0.33 0.00 72 983.1
20260905132803 27 66 0.0 6.4 0.00 0.33 0.00 77 983.1
20260905132305 27 71 1.6 4.8 0.00 0.33 0.00 79 983.1
20260905131803 27 92 3.2 3.2 0.00 0.33 0.00 74 983.1
20260905131303 27 104 0.0 3.2 0.00 0.33 0.00 71 983.1
20260905130803 27 285 0.0 3.2 0.00 0.33 0.00 74 983.1
20260905130303 27 286 0.0 3.2 0.00 0.33 0.00 75 983.1
20260905125803 27 296 0.0 3.2 0.00 0.33 0.00 75 983.1
20260905125305 27 106 0.0 3.2 0.00 0.33 0.00 76 983.1
20260905124803 27 86 1.6 3.2 0.00 0.33 0.00 75 982.7
20260905124303 27 350 0.0 3.2 0.00 0.33 0.00 72 982.7
20260905123803 27 47 1.6 3.2 0.00 0.33 0.00 73 983.1
20260905123303 27 217 0.0 6.4 0.00 0.33 0.00 70 983.1
20260905122803 26 63 0.0 6.4 0.00 0.33 0.00 71 982.7
20260905122306 26 76 4.8 6.4 0.00 0.33 0.00 72 982.7
20260905121802 26 68 3.2 4.8 0.00 0.33 0.00 70 983.1
20260905121303 27 284 0.0 4.8 0.00 0.33 0.00 68 982.7
20260905120803 26 255 0.0 4.8 0.00 0.33 0.00 70 982.7
20260905120302 25 248 3.2 4.8 0.00 0.33 0.00 74 982.4
20260905115803 25 254 3.2 3.2 0.00 0.33 0.00 78 982.4
20260905115305 25 52 0.0 3.2 0.00 0.33 0.00 77 982.7
20260905114802 23 234 0.0 3.2 0.00 0.33 0.00 80 982.7
20260905114302 24 135 0.0 3.2 0.00 0.33 0.00 83 982.4
20260905113802 24 10 0.0 3.2 0.00 0.33 0.00 81 982.4
20260905113302 23 186 1.6 3.2 0.00 0.33 0.00 82 982.4
20260905112803 23 269 0.0 1.6 0.00 0.33 0.00 85 982.4
20260905112305 23 154 0.0 3.2 0.00 0.33 0.00 86 982.1
20260905111803 23 230 0.0 3.2 0.00 0.33 0.00 84 982.1
20260905111303 24 157 0.0 3.2 0.00 0.33 0.00 83 981.7
20260905110803 24 147 0.0 1.6 0.00 0.33 0.00 78 982.1
20260905110302 25 297 0.0 1.6 0.00 0.33 0.00 77 981.7
20260905105803 25 66 0.0 1.6 0.00 0.33 0.00 77 981.7
20260905105306 25 117 0.0 3.2 0.00 0.33 0.00 75 981.7
20260905104802 25 135 0.0 3.2 0.00 0.33 0.00 75 981.7
20260905104302 24 162 0.0 1.6 0.00 0.33 0.00 77 981.4
20260905103803 23 269 0.0 1.6 0.00 0.33 0.00 81 981.4
20260905103303 23 25 0.0 3.2 0.00 0.33 0.00 85 981.4
20260905102803 23 55 0.0 3.2 0.00 0.33 0.00 87 981.4
20260905102306 23 15 0.0 3.2 0.00 0.33 0.00 88 981.7
20260905101803 23 224 0.0 3.2 0.00 0.33 0.00 90 981.7
20260905101303 23 193 0.0 3.2 0.00 0.33 0.00 91 981.7
20260905100803 23 155 0.0 1.6 0.00 0.33 0.00 91 981.4
20260905100302 23 343 0.0 1.6 0.00 0.33 0.00 89 981.7
20260905095803 23 252 0.0 1.6 0.00 0.33 0.00 89 981.4
20260905095305 23 44 0.0 1.6 0.00 0.33 0.00 88 981.4
20260905094802 23 25 0.0 1.6 0.00 0.33 0.00 88 981.4
20260905094303 23 315 0.0 0.0 0.00 0.33 0.00 88 981.4
20260905093802 23 129 0.0 3.2 0.00 0.33 0.00 88 981.4
20260905093303 23 76 0.0 3.2 0.00 0.33 0.00 87 981.4
20260905092802 23 137 1.6 1.6 0.00 0.33 0.00 86 981.4
20260905092306 23 6 0.0 0.0 0.00 0.33 0.00 87 981.4
20260905091802 23 129 0.0 1.6 0.00 0.33 0.00 89 981.4
20260905091303 23 29 0.0 1.6 0.00 0.33 0.00 88 981.4
20260905090803 23 224 0.0 1.6 0.00 0.33 0.00 87 981.4
20260905090302 23 209 1.6 3.2 0.00 0.33 0.00 88 981.0
20260905085803 23 75 0.0 3.2 0.00 0.33 0.00 89 981.4
20260905085305 23 333 0.0 1.6 0.00 0.33 0.00 90 981.4
20260905084803 23 44 0.0 1.6 0.00 0.33 0.00 90 981.4
20260905084302 23 44 0.0 4.8 0.00 0.33 0.00 91 981.0
20260905083803 23 290 0.0 4.8 0.00 0.33 0.00 90 981.0
20260905083302 24 185 1.6 4.8 0.00 0.33 0.00 86 981.0
20260905082803 25 103 3.2 3.2 0.00 0.33 0.00 81 981.0
20260905082306 25 61 0.0 1.6 0.00 0.33 0.00 77 981.4
20260905081803 26 113 0.0 0.0 0.00 0.33 0.00 74 981.0
20260905081302 26 113 0.0 0.0 0.00 0.33 0.00 71 981.0
20260905080803 25 135 0.0 0.0 0.00 0.33 0.00 71 981.4
20260905080302 25 129 0.0 0.0 0.00 0.33 0.00 72 981.0
20260905075803 25 309 0.0 0.0 0.00 0.33 0.00 72 981.0
20260905075305 25 89 0.0 1.6 0.00 0.33 0.00 72 981.0
20260905074803 25 117 0.0 1.6 0.00 0.33 0.00 72 981.0
20260905074303 26 117 0.0 3.2 0.00 0.33 0.00 72 981.0
20260905073803 26 267 0.0 3.2 0.00 0.33 0.00 70 981.4
20260905073302 26 256 0.0 3.2 0.00 0.33 0.00 69 981.0
20260905072803 26 128 1.6 3.2 0.00 0.33 0.00 70 981.4
20260905072305 26 126 0.0 1.6 0.00 0.33 0.00 71 981.4
20260905071803 26 60 0.0 3.2 0.00 0.33 0.00 71 981.0
20260905071303 26 240 0.0 3.2 0.00 0.33 0.00 72 981.0
20260905070802 25 228 1.6 3.2 0.00 0.33 0.00 74 981.0
20260905070303 25 269 0.0 1.6 0.00 0.33 0.00 74 981.4
20260905065803 26 308 0.0 1.6 0.00 0.33 0.00 73 981.4
20260905065306 26 224 0.0 0.0 0.00 0.33 0.00 73 981.4
20260905064803 25 217 0.0 3.2 0.00 0.33 0.00 73 981.4
20260905064303 25 164 0.0 3.2 0.00 0.33 0.00 73 981.7
20260905063802 25 55 0.0 0.0 0.00 0.33 0.00 74 981.7
20260905063303 25 130 0.0 3.2 0.00 0.33 0.00 76 981.4
20260905062803 25 129 0.0 3.2 0.00 0.33 0.00 78 981.7
20260905062305 25 137 0.0 3.2 0.00 0.33 0.00 84 981.4
20260905061802 25 75 0.0 3.2 0.00 0.33 0.00 82 982.1
20260905061302 25 205 0.0 3.2 0.00 0.33 0.00 83 981.7
20260905060803 25 321 1.6 3.2 0.00 0.33 0.00 83 981.7
20260905060303 25 321 0.0 4.8 0.00 0.33 0.00 83 982.1
20260905055803 25 333 0.0 4.8 0.00 0.33 0.00 84 981.7
20260905055306 25 92 3.2 3.2 0.00 0.33 0.00 85 982.4
20260905054802 25 170 0.0 3.2 0.00 0.33 0.00 86 982.1
20260905054302 25 168 1.6 3.2 0.00 0.33 0.00 86 982.4
20260905053802 25 166 0.0 1.6 0.00 0.33 0.00 87 982.1
20260905053302 25 253 0.0 3.2 0.00 0.33 0.00 86 982.1
20260905052802 25 63 0.0 3.2 0.00 0.33 0.00 85 982.1